This demonstration page uses our WeatherBlox Daily Observations layout. Learn more.

Left ArrowRight Arrow

39.01783, -85.05884

Hourly Observations for February 4, 2021

Temp ( °F °C ) Dew Point ( °F °C ) Humidity (%) Winds ( mph kmh ) Pressure ( in mb ) Visibility ( mi km ) Precip ( " mm )
12:52 am 00:52 Cloudy 24 -4.4 20 -6.7 84 84 Calm 30.07 1018 10 16 0.00 0.00
1:52 am 01:52 Cloudy 26 -3.3 21 -6.1 81 81 Calm 30.06 1018 10 16 0.00 0.00
2:52 am 02:52 Cloudy 26 -3.3 21 -6.1 81 81 SSE 5 7 30.04 1017 10 16 0.00 0.00
3:52 am 03:52 Cloudy 26 -3.3 20 -6.7 78 78 SE 8 13 30.02 1017 10 16 0.00 0.00
4:52 am 04:52 Cloudy 26 -3.3 20 -6.7 78 78 SSE 8 13 30.02 1017 10 16 0.00 0.00
5:52 am 05:52 Cloudy 26 -3.3 20 -6.7 78 78 SE 7 11 30.01 1016 10 16 0.00 0.00
6:52 am 06:52 Cloudy 27 -2.8 21 -6.1 78 78 S 7 11 30.03 1017 9 14 0.00 0.00
7:52 am 07:52 Mostly Cloudy 28 -2.2 21 -6.1 75 75 SSE 12 19 30.01 1016 9 14 0.00 0.00
8:52 am 08:52 Cloudy 29 -1.7 22 -5.6 75 75 SSE 12 19 30.00 1016 9 14 0.00 0.00
9:52 am 09:52 Cloudy 31 -0.6 23 -5 72 72 SSE 12 19 29.96 1015 10 16 0.00 0.00
10:52 am 10:52 Cloudy 33 0.6 23 -5 66 66 SSE 15 24 29.93 1014 10 16 0.00 0.00
11:52 am 11:52 Cloudy 35 1.7 24 -4.4 64 64 SSE 14 22 29.89 1012 10 16 0.00 0.00
12:52 pm 12:52 Cloudy 35 1.7 24 -4.4 64 64 SE 14 22 29.83 1010 10 16 0.00 0.00
1:52 pm 13:52 Cloudy 37 2.8 24 -4.4 59 59 SSE 14 22 29.78 1009 10 16 0.00 0.00
2:52 pm 14:52 Cloudy 37 2.8 23 -5 57 57 SSE 18 30 29.72 1007 10 16 0.00 0.00
3:14 pm 15:14 Cloudy 36 2.2 24 -4.4 62 62 SSE 14 22 29.73 1007 9 14 0.00 0.00
3:20 pm 15:20 Cloudy with Light Rain 36 2.2 25 -3.9 64 64 SE 18 30 29.72 1006 6 10 0.00 0.00
3:52 pm 15:52 Cloudy with Light Rain 35 1.7 27 -2.8 72 72 SE 16 26 29.65 1004 9 14 0.03 0.76
4:52 pm 16:52 Cloudy with Light Rain 35 1.7 28 -2.2 76 76 SSE 16 26 29.62 1003 10 16 0.01 0.25
5:00 pm 17:00 Cloudy 35 1.7 27 -2.8 72 72 SSE 16 26 29.64 1004 9 14 0.01 0.25
5:15 pm 17:15 Cloudy 35 1.7 28 -2.2 76 76 SSE 16 26 29.63 1003 6 10 0.01 0.25
5:26 pm 17:26 Cloudy 36 2.2 27 -2.8 70 70 SSE 18 30 29.62 1003 5 8 0.01 0.25
5:33 pm 17:33 Cloudy 35 1.7 28 -2.2 76 76 SE 21 33 29.61 1003 8 13 0.02 0.51
5:40 pm 17:40 Cloudy with Light Rain 36 2.2 27 -2.8 70 70 SE 21 33 29.60 1002 10 16 0.02 0.51
5:52 pm 17:52 Cloudy with Light Rain 36 2.2 27 -2.8 70 70 SSE 21 33 29.58 1002 9 14 0.02 0.51
6:52 pm 18:52 Cloudy with Light Rain 36 2.2 29 -1.7 76 76 SSE 16 26 29.55 1001 9 14 0.01 0.25
7:13 pm 19:13 Cloudy with Light Rain 36 2.2 29 -1.7 76 76 S 21 33 29.57 1001 9 14 0.01 0.25
7:52 pm 19:52 Cloudy 36 2.2 30 -1.1 79 79 S 18 30 29.53 1000 10 16 0.02 0.51
8:52 pm 20:52 Cloudy with Drizzle 36 2.2 32 0 86 86 SSW 10 17 29.52 1000 5 8 0.01 0.25
9:27 pm 21:27 Cloudy with Light Rain 36 2.2 33 0.6 89 89 SSW 13 20 29.55 1001 6 10 0.01 0.25
9:43 pm 21:43 Cloudy with Light Rain 36 2.2 33 0.6 89 89 SW 10 17 29.55 1001 5 8 0.02 0.51
9:52 pm 21:52 Cloudy with Light Rain 36 2.2 33 0.6 89 89 SW 9 15 29.52 1000 6 10 0.03 0.76
10:07 pm 22:07 Cloudy with Light Rain 36 2.2 34 1.1 93 93 SW 9 15 29.56 1001 8 13 0.00 0.00
10:52 pm 22:52 Cloudy with Light Rain 38 3.3 35 1.7 89 89 SW 13 20 29.53 1000 10 16 0.01 0.25
11:24 pm 23:24 Cloudy 39 3.9 35 1.7 86 86 W 21 33 29.57 1001 10 16 0.00 0.00
11:37 pm 23:37 Cloudy 38 3.3 33 0.6 83 83 W 17 28 29.59 1002 10 16 0.00 0.00
11:48 pm 23:48 Cloudy 37 3 32 0 81 81 W 20 31 29.60 1003 10 16 0.00 0.00
11:52 pm 23:52 Cloudy 36 2.2 32 0 86 86 W 18 30 29.59 1002 10 16 0.00 0.00

Powered by AerisWeather